START_TIME,STEP,MOV.,P11,t_acc.,P23,t_acc.,P27,t_acc.,A4,t_acc.
1979-08-05 00:00:21.730 ,0,0,1.,4.8,1.,4.8,1.,4.8,0.,4.8
1979-08-05 00:00:26.530 ,0,0,3.,4.8,1.,4.8,0.,4.8,0.,4.8
1979-08-05 00:00:31.330 ,0,0,2.,4.8,0.,4.8,1.,4.8,0.,4.8
1979-08-05 00:00:36.130 ,0,0,4.,4.8,1.,4.8,0.,4.8,0.,4.8
1979-08-05 00:00:40.930 ,0,0,0.,4.8,1.,4.8,1.,4.8,0.,4.8
1979-08-05 00:00:45.730 ,1,0,1.,4.8,1.,4.8,1.,4.8,0.,4.8
1979-08-05 00:00:50.530 ,1,0,0.,4.8,0.,4.8,0.,4.8,0.,4.8
1979-08-05 00:00:55.330 ,1,0,1.,4.8,1.,4.8,0.,4.8,0.,4.8
1979-08-05 00:01:00.130 ,1,0,2.,4.8,1.,4.8,0.,4.8,0.,4.8
1979-08-05 00:01:04.930 ,1,0,0.,4.8,0.,4.8,0.,4.8,0.,4.8
1979-08-05 00:01:09.730 ,1,0,1.,4.8,0.,4.8,0.,4.8,0.,4.8
1979-08-05 00:01:14.530 ,1,0,2.,4.8,0.,4.8,1.,4.8,0.,4.8
1979-08-05 00:01:19.330 ,1,0,6.,4.8,1.,4.8,0.,4.8,0.,4.8
1979-08-05 00:01:24.130 ,1,0,1.,4.8,1.,4.8,0.,4.8,0.,4.8
1979-08-05 00:01:28.930 ,1,0,2.,4.8,1.,4.8,0.,4.8,0.,4.8
1979-08-05 00:01:33.730 ,2,0,3.,4.8,2.,4.8,1.,4.8,0.,4.8
1979-08-05 00:01:38.530 ,2,0,1.,4.8,0.,4.8,0.,4.8,0.,4.8
1979-08-05 00:01:43.330 ,2,0,2.,4.8,0.,4.8,2.,4.8,0.,4.8
1979-08-05 00:01:48.130 ,2,0,2.,4.8,1.,4.8,0.,4.8,0.,4.8
1979-08-05 00:01:52.930 ,2,0,0.,4.8,2.,4.8,0.,4.8,0.,4.8
1979-08-05 00:01:57.730 ,2,0,2.,4.8,1.,4.8,2.,4.8,0.,4.8
1979-08-05 00:02:02.530 ,2,0,1.,4.8,1.,4.8,0.,4.8,0.,4.8
1979-08-05 00:02:07.330 ,2,0,4.,4.8,1.,4.8,0.,4.8,0.,4.8
1979-08-05 00:02:12.130 ,2,0,2.,4.8,1.,4.8,0.,4.8,0.,4.8
1979-08-05 00:02:16.930 ,2,0,1.,4.8,1.,4.8,0.,4.8,0.,4.8
1979-08-05 00:02:21.730 ,3,0,2.,4.8,0.,4.8,1.,4.8,0.,4.8
1979-08-05 00:02:26.530 ,3,0,3.,4.8,1.,4.8,2.,4.8,0.,4.8
1979-08-05 00:02:31.330 ,3,0,1.,4.8,0.,4.8,1.,4.8,0.,4.8
1979-08-05 00:02:36.130 ,3,0,1.,4.8,0.,4.8,1.,4.8,0.,4.8
1979-08-05 00:02:40.930 ,3,0,1.,4.8,0.,4.8,0.,4.8,0.,4.8
1979-08-05 00:02:45.730 ,3,0,2.,4.8,0.,4.8,0.,4.8,0.,4.8
1979-08-05 00:02:50.530 ,3,0,4.,4.8,0.,4.8,0.,4.8,0.,4.8
1979-08-05 00:02:55.330 ,3,0,1.,4.8,0.,4.8,0.,4.8,0.,4.8
1979-08-05 00:03:00.130 ,3,0,2.,4.8,0.,4.8,0.,4.8,0.,4.8
1979-08-05 00:03:04.930 ,3,0,2.,4.8,1.,4.8,1.,4.8,0.,4.8
1979-08-05 00:03:09.730 ,4,0,2.,4.8,0.,4.8,1.,4.8,0.,4.8
1979-08-05 00:03:14.530 ,4,0,2.,4.8,0.,4.8,0.,4.8,0.,4.8
1979-08-05 00:03:19.330 ,4,0,0.,4.8,0.,4.8,0.,4.8,0.,4.8
1979-08-05 00:03:24.130 ,4,0,3.,4.8,0.,4.8,2.,4.8,0.,4.8
1979-08-05 00:03:28.930 ,4,0,1.,4.8,1.,4.8,0.,4.8,0.,4.8
1979-08-05 00:03:33.730 ,4,0,1.,4.8,1.,4.8,1.,4.8,1.,4.8
1979-08-05 00:03:38.530 ,4,0,1.,4.8,1.,4.8,0.,4.8,0.,4.8
1979-08-05 00:03:43.330 ,4,0,3.,4.8,0.,4.8,0.,4.8,0.,4.8
1979-08-05 00:03:48.130 ,4,0,1.,4.8,1.,4.8,0.,4.8,0.,4.8
1979-08-05 00:03:52.930 ,4,0,2.,4.8,1.,4.8,2.,4.8,0.,4.8
1979-08-05 00:03:57.730 ,5,0,1.,4.8,0.,4.8,0.,4.8,0.,4.8
1979-08-05 00:04:02.530 ,5,0,2.,4.8,1.,4.8,6.,4.8,0.,4.8
1979-08-05 00:04:07.330 ,5,0,1.,4.8,2.,4.8,0.,4.8,0.,4.8
1979-08-05 00:04:12.130 ,5,0,3.,4.8,0.,4.8,0.,4.8,0.,4.8
1979-08-05 00:04:16.930 ,5,0,1.,4.8,0.,4.8,0.,4.8,0.,4.8
1979-08-05 00:04:21.730 ,5,0,0.,4.8,1.,4.8,1.,4.8,0.,4.8
1979-08-05 00:04:26.530 ,5,0,0.,4.8,0.,4.8,1.,4.8,0.,4.8
1979-08-05 00:04:31.330 ,5,0,4.,4.8,0.,4.8,1.,4.8,0.,4.8
1979-08-05 00:04:36.130 ,5,0,2.,4.8,0.,4.8,0.,4.8,0.,4.8
1979-08-05 00:04:40.930 ,5,0,3.,4.8,1.,4.8,1.,4.8,0.,4.8
1979-08-05 00:04:45.730 ,6,0,2.,4.8,0.,4.8,0.,4.8,0.,4.8
1979-08-05 00:04:50.530 ,6,0,6.,4.8,0.,4.8,1.,4.8,0.,4.8
1979-08-05 00:04:55.330 ,6,0,0.,4.8,0.,4.8,0.,4.8,0.,4.8
1979-08-05 00:05:00.130 ,6,0,1.,4.8,0.,4.8,0.,4.8,0.,4.8
1979-08-05 00:05:04.930 ,6,0,1.,4.8,0.,4.8,2.,4.8,0.,4.8
1979-08-05 00:05:09.730 ,6,0,2.,4.8,0.,4.8,0.,4.8,0.,4.8
1979-08-05 00:05:14.530 ,6,0,2.,4.8,0.,4.8,0.,4.8,0.,4.8
1979-08-05 00:05:19.330 ,6,0,2.,4.8,2.,4.8,1.,4.8,0.,4.8
1979-08-05 00:05:24.130 ,6,0,4.,4.8,3.,4.8,1.,4.8,0.,4.8
1979-08-05 00:05:28.930 ,6,0,3.,4.8,2.,4.8,1.,4.8,0.,4.8
1979-08-05 00:05:33.730 ,7,0,0.,4.8,0.,4.8,0.,4.8,0.,4.8
1979-08-05 00:05:38.530 ,7,0,2.,4.8,3.,4.8,0.,4.8,0.,4.8
1979-08-05 00:05:43.330 ,7,0,0.,4.8,0.,4.8,1.,4.8,0.,4.8
1979-08-05 00:05:48.130 ,7,0,2.,4.8,1.,4.8,0.,4.8,0.,4.8
1979-08-05 00:05:52.930 ,7,0,0.,4.8,0.,4.8,0.,4.8,0.,4.8
1979-08-05 00:05:57.730 ,7,0,2.,4.8,1.,4.8,0.,4.8,0.,4.8
1979-08-05 00:06:02.530 ,7,0,0.,4.8,0.,4.8,0.,4.8,0.,4.8
1979-08-05 00:06:07.330 ,7,0,0.,4.8,1.,4.8,1.,4.8,0.,4.8
1979-08-05 00:06:12.130 ,7,0,2.,4.8,1.,4.8,1.,4.8,0.,4.8
1979-08-05 00:06:16.930 ,7,0,0.,4.8,0.,4.8,0.,4.8,0.,4.8
1979-08-05 00:06:21.730 ,7,0,0.,4.8,1.,4.8,0.,4.8,0.,4.8
1979-08-05 00:06:26.530 ,7,0,0.,4.8,1.,4.8,0.,4.8,0.,4.8
1979-08-05 00:06:31.330 ,7,0,1.,4.8,0.,4.8,2.,4.8,0.,4.8
1979-08-05 00:06:36.130 ,7,0,1.,4.8,0.,4.8,0.,4.8,0.,4.8
1979-08-05 00:06:40.930 ,7,0,2.,4.8,0.,4.8,0.,4.8,0.,4.8
1979-08-05 00:06:45.730 ,7,0,1.,4.8,0.,4.8,1.,4.8,0.,4.8
1979-08-05 00:06:50.530 ,7,0,3.,4.8,0.,4.8,0.,4.8,0.,4.8
1979-08-05 00:06:55.330 ,7,0,1.,4.8,3.,4.8,0.,4.8,0.,4.8
1979-08-05 00:07:00.130 ,7,0,1.,4.8,0.,4.8,1.,4.8,0.,4.8
1979-08-05 00:07:04.930 ,7,0,1.,4.8,0.,4.8,1.,4.8,0.,4.8
1979-08-05 00:07:09.730 ,6,0,1.,4.8,0.,4.8,1.,4.8,0.,4.8
1979-08-05 00:07:14.530 ,6,0,1.,4.8,1.,4.8,1.,4.8,0.,4.8
1979-08-05 00:07:19.330 ,6,0,0.,4.8,0.,4.8,0.,4.8,0.,4.8
1979-08-05 00:07:24.130 ,6,0,2.,4.8,0.,4.8,3.,4.8,0.,4.8
1979-08-05 00:07:28.930 ,6,0,3.,4.8,0.,4.8,0.,4.8,0.,4.8
1979-08-05 00:07:33.730 ,6,0,3.,4.8,1.,4.8,2.,4.8,0.,4.8
1979-08-05 00:07:38.530 ,6,0,5.,4.8,0.,4.8,2.,4.8,0.,4.8
1979-08-05 00:07:43.330 ,6,0,3.,4.8,1.,4.8,0.,4.8,0.,4.8
1979-08-05 00:07:48.130 ,6,0,6.,4.8,0.,4.8,1.,4.8,0.,4.8
1979-08-05 00:07:52.930 ,6,0,1.,4.8,4.,4.8,1.,4.8,0.,4.8
1979-08-05 00:07:57.730 ,5,0,2.,4.8,1.,4.8,0.,4.8,0.,4.8
1979-08-05 00:08:02.530 ,5,0,3.,4.8,1.,4.8,1.,4.8,0.,4.8
1979-08-05 00:08:07.330 ,5,0,1.,4.8,0.,4.8,2.,4.8,0.,4.8
1979-08-05 00:08:12.130 ,5,0,1.,4.8,0.,4.8,0.,4.8,0.,4.8
1979-08-05 00:08:16.930 ,5,0,3.,4.8,0.,4.8,0.,4.8,0.,4.8
1979-08-05 00:08:21.730 ,5,0,1.,4.8,0.,4.8,0.,4.8,0.,4.8
1979-08-05 00:08:26.530 ,5,0,1.,4.8,0.,4.8,3.,4.8,0.,4.8
1979-08-05 00:08:31.330 ,5,0,2.,4.8,2.,4.8,3.,4.8,0.,4.8
1979-08-05 00:08:36.130 ,5,0,0.,4.8,0.,4.8,0.,4.8,0.,4.8
1979-08-05 00:08:40.930 ,5,0,0.,4.8,3.,4.8,0.,4.8,0.,4.8
1979-08-05 00:08:45.730 ,4,0,1.,4.8,0.,4.8,0.,4.8,0.,4.8
1979-08-05 00:08:50.530 ,4,0,0.,4.8,1.,4.8,0.,4.8,0.,4.8
1979-08-05 00:08:55.330 ,4,0,1.,4.8,1.,4.8,1.,4.8,0.,4.8
1979-08-05 00:09:00.130 ,4,0,3.,4.8,0.,4.8,3.,4.8,0.,4.8
1979-08-05 00:09:04.930 ,4,0,1.,4.8,0.,4.8,0.,4.8,0.,4.8
1979-08-05 00:09:09.730 ,4,0,1.,4.8,0.,4.8,0.,4.8,0.,4.8
1979-08-05 00:09:14.530 ,4,0,2.,4.8,0.,4.8,1.,4.8,0.,4.8
1979-08-05 00:09:19.330 ,4,0,4.,4.8,0.,4.8,0.,4.8,0.,4.8
1979-08-05 00:09:24.130 ,4,0,1.,4.8,0.,4.8,1.,4.8,0.,4.8
1979-08-05 00:09:28.930 ,4,0,3.,4.8,0.,4.8,2.,4.8,0.,4.8
1979-08-05 00:09:33.730 ,3,0,0.,4.8,0.,4.8,1.,4.8,0.,4.8
1979-08-05 00:09:38.530 ,3,0,3.,4.8,3.,4.8,1.,4.8,0.,4.8
1979-08-05 00:09:43.330 ,3,0,0.,4.8,0.,4.8,0.,4.8,0.,4.8
1979-08-05 00:09:48.130 ,3,0,3.,4.8,0.,4.8,2.,4.8,0.,4.8
1979-08-05 00:09:52.930 ,3,0,1.,4.8,0.,4.8,0.,4.8,0.,4.8
1979-08-05 00:09:57.730 ,3,0,2.,4.8,0.,4.8,0.,4.8,0.,4.8
1979-08-05 00:10:02.530 ,3,0,1.,4.8,0.,4.8,4.,4.8,0.,4.8
1979-08-05 00:10:07.330 ,3,0,5.,4.8,0.,4.8,0.,4.8,0.,4.8
1979-08-05 00:10:12.130 ,3,0,3.,4.8,0.,4.8,0.,4.8,0.,4.8
1979-08-05 00:10:16.930 ,3,0,4.,4.8,0.,4.8,0.,4.8,0.,4.8
1979-08-05 00:10:21.730 ,2,0,7.,4.8,0.,4.8,0.,4.8,0.,4.8
1979-08-05 00:10:26.530 ,2,0,1.,4.8,0.,4.8,1.,4.8,0.,4.8
1979-08-05 00:10:31.330 ,2,0,0.,4.8,1.,4.8,2.,4.8,0.,4.8
1979-08-05 00:10:36.130 ,2,0,3.,4.8,1.,4.8,0.,4.8,1.,4.8
1979-08-05 00:10:40.930 ,2,0,1.,4.8,1.,4.8,0.,4.8,0.,4.8
1979-08-05 00:10:45.730 ,2,0,3.,4.8,1.,4.8,0.,4.8,0.,4.8
1979-08-05 00:10:50.530 ,2,0,2.,4.8,0.,4.8,1.,4.8,0.,4.8
1979-08-05 00:10:55.330 ,2,0,1.,4.8,0.,4.8,0.,4.8,0.,4.8
1979-08-05 00:11:00.130 ,2,0,0.,4.8,1.,4.8,1.,4.8,0.,4.8
1979-08-05 00:11:04.930 ,2,0,2.,4.8,0.,4.8,1.,4.8,0.,4.8
1979-08-05 00:11:09.730 ,1,0,4.,4.8,0.,4.8,0.,4.8,0.,4.8
1979-08-05 00:11:14.530 ,1,0,2.,4.8,0.,4.8,0.,4.8,0.,4.8
1979-08-05 00:11:19.330 ,1,0,3.,4.8,2.,4.8,0.,4.8,0.,4.8
1979-08-05 00:11:24.130 ,1,0,2.,4.8,0.,4.8,1.,4.8,0.,4.8
1979-08-05 00:11:28.930 ,1,0,3.,4.8,1.,4.8,1.,4.8,0.,4.8
1979-08-05 00:11:33.730 ,1,0,1.,4.8,1.,4.8,0.,4.8,0.,4.8
1979-08-05 00:11:38.530 ,1,0,0.,4.8,0.,4.8,1.,4.8,0.,4.8
1979-08-05 00:11:43.330 ,1,0,2.,4.8,0.,4.8,0.,4.8,0.,4.8
1979-08-05 00:11:48.130 ,1,0,1.,4.8,2.,4.8,2.,4.8,0.,4.8
1979-08-05 00:11:52.930 ,1,0,5.,4.8,0.,4.8,1.,4.8,0.,4.8
1979-08-05 00:11:57.730 ,0,0,5.,4.8,0.,4.8,2.,4.8,0.,4.8
1979-08-05 00:12:02.530 ,0,0,1.,4.8,2.,4.8,2.,4.8,0.,4.8
1979-08-05 00:12:07.330 ,0,0,4.,4.8,1.,4.8,0.,4.8,0.,4.8
1979-08-05 00:12:12.130 ,0,0,3.,4.8,1.,4.8,0.,4.8,0.,4.8
1979-08-05 00:12:16.930 ,0,0,1.,4.8,0.,4.8,1.,4.8,0.,4.8
1979-08-05 00:12:21.730 ,0,0,1.,4.8,1.,4.8,0.,4.8,0.,4.8
1979-08-05 00:12:26.530 ,0,0,1.,4.8,2.,4.8,1.,4.8,0.,4.8
1979-08-05 00:12:31.330 ,0,0,8.,4.8,1.,4.8,0.,4.8,0.,4.8
1979-08-05 00:12:36.130 ,0,0,1.,4.8,1.,4.8,0.,4.8,0.,4.8
1979-08-05 00:12:40.930 ,0,0,1.,4.8,1.,4.8,3.,4.8,0.,4.8
1979-08-05 00:12:45.730 ,0,0,5.,4.8,0.,4.8,1.,4.8,0.,4.8
1979-08-05 00:12:50.530 ,0,0,0.,4.8,0.,4.8,0.,4.8,0.,4.8
1979-08-05 00:12:55.330 ,0,0,3.,4.8,1.,4.8,1.,4.8,0.,4.8
1979-08-05 00:13:00.130 ,0,0,3.,4.8,2.,4.8,1.,4.8,0.,4.8
1979-08-05 00:13:04.930 ,0,0,1.,4.8,0.,4.8,2.,4.8,0.,4.8
1979-08-05 00:13:09.730 ,0,0,3.,4.8,0.,4.8,0.,4.8,0.,4.8
1979-08-05 00:13:14.530 ,0,0,0.,4.8,1.,4.8,0.,4.8,0.,4.8
1979-08-05 00:13:19.330 ,0,0,1.,4.8,3.,4.8,1.,4.8,0.,4.8
1979-08-05 00:13:24.130 ,0,0,4.,4.8,1.,4.8,0.,4.8,0.,4.8
1979-08-05 00:13:28.930 ,0,0,1.,4.8,1.,4.8,1.,4.8,0.,4.8
1979-08-05 00:13:33.730 ,1,0,1.,4.8,2.,4.8,0.,4.8,0.,4.8
1979-08-05 00:13:38.530 ,1,0,2.,4.8,0.,4.8,0.,4.8,0.,4.8
1979-08-05 00:13:43.330 ,1,0,2.,4.8,0.,4.8,1.,4.8,0.,4.8
1979-08-05 00:13:48.130 ,1,0,3.,4.8,0.,4.8,0.,4.8,0.,4.8
1979-08-05 00:13:52.930 ,1,0,3.,4.8,1.,4.8,2.,4.8,0.,4.8
1979-08-05 00:13:57.730 ,1,0,1.,4.8,0.,4.8,2.,4.8,0.,4.8
1979-08-05 00:14:02.530 ,1,0,2.,4.8,1.,4.8,1.,4.8,0.,4.8
1979-08-05 00:14:07.330 ,1,0,4.,4.8,0.,4.8,1.,4.8,0.,4.8
1979-08-05 00:14:12.130 ,1,0,3.,4.8,0.,4.8,4.,4.8,0.,4.8
1979-08-05 00:14:16.930 ,1,0,6.,4.8,0.,4.8,0.,4.8,0.,4.8
1979-08-05 00:14:21.730 ,2,0,3.,4.8,0.,4.8,1.,4.8,0.,4.8
1979-08-05 00:14:26.530 ,2,0,0.,4.8,1.,4.8,0.,4.8,0.,4.8
1979-08-05 00:14:31.330 ,2,0,1.,4.8,1.,4.8,1.,4.8,0.,4.8
1979-08-05 00:14:36.130 ,2,0,4.,4.8,0.,4.8,0.,4.8,0.,4.8
1979-08-05 00:14:40.930 ,2,0,1.,4.8,2.,4.8,0.,4.8,0.,4.8
1979-08-05 00:14:45.730 ,2,0,4.,4.8,0.,4.8,0.,4.8,0.,4.8
1979-08-05 00:14:50.530 ,2,0,3.,4.8,2.,4.8,2.,4.8,0.,4.8
1979-08-05 00:14:55.330 ,2,0,2.,4.8,0.,4.8,0.,4.8,0.,4.8
1979-08-05 00:15:00.130 ,2,0,1.,4.8,1.,4.8,0.,4.8,0.,4.8
1979-08-05 00:15:04.930 ,2,0,1.,4.8,0.,4.8,1.,4.8,0.,4.8
1979-08-05 00:15:09.730 ,3,0,2.,4.8,1.,4.8,0.,4.8,0.,4.8
1979-08-05 00:15:14.530 ,3,0,1.,4.8,1.,4.8,1.,4.8,0.,4.8
1979-08-05 00:15:19.330 ,3,0,2.,4.8,1.,4.8,0.,4.8,0.,4.8
1979-08-05 00:15:24.130 ,3,0,4.,4.8,0.,4.8,0.,4.8,0.,4.8
1979-08-05 00:15:28.930 ,3,0,2.,4.8,0.,4.8,1.,4.8,0.,4.8
1979-08-05 00:15:33.730 ,3,0,3.,4.8,0.,4.8,0.,4.8,0.,4.8
1979-08-05 00:15:38.530 ,3,0,4.,4.8,0.,4.8,0.,4.8,0.,4.8
1979-08-05 00:15:43.330 ,3,0,2.,4.8,0.,4.8,0.,4.8,0.,4.8
1979-08-05 00:15:48.130 ,3,0,4.,4.8,0.,4.8,0.,4.8,0.,4.8
1979-08-05 00:15:52.930 ,3,0,1.,4.8,0.,4.8,0.,4.8,0.,4.8
1979-08-05 00:15:57.730 ,4,0,0.,4.8,0.,4.8,1.,4.8,0.,4.8
1979-08-05 00:16:02.530 ,4,0,0.,4.8,1.,4.8,1.,4.8,0.,4.8
1979-08-05 00:16:07.330 ,4,0,1.,4.8,1.,4.8,3.,4.8,0.,4.8
1979-08-05 00:16:12.130 ,4,0,7.,4.8,0.,4.8,1.,4.8,0.,4.8
1979-08-05 00:16:16.930 ,4,0,3.,4.8,0.,4.8,1.,4.8,0.,4.8
1979-08-05 00:16:21.730 ,4,0,2.,4.8,1.,4.8,2.,4.8,0.,4.8
1979-08-05 00:16:26.530 ,4,0,2.,4.8,0.,4.8,0.,4.8,0.,4.8
1979-08-05 00:16:31.330 ,4,0,2.,4.8,0.,4.8,1.,4.8,0.,4.8
1979-08-05 00:16:36.130 ,4,0,0.,4.8,0.,4.8,1.,4.8,0.,4.8
1979-08-05 00:16:40.930 ,4,0,4.,4.8,0.,4.8,0.,4.8,0.,4.8
1979-08-05 00:16:45.730 ,5,0,4.,4.8,1.,4.8,0.,4.8,0.,4.8
1979-08-05 00:16:50.530 ,5,0,2.,4.8,1.,4.8,1.,4.8,0.,4.8
1979-08-05 00:16:55.330 ,5,0,2.,4.8,1.,4.8,0.,4.8,0.,4.8
1979-08-05 00:17:00.130 ,5,0,2.,4.8,1.,4.8,1.,4.8,0.,4.8
1979-08-05 00:17:04.930 ,5,0,1.,4.8,1.,4.8,1.,4.8,0.,4.8
1979-08-05 00:17:09.730 ,5,0,2.,4.8,0.,4.8,0.,4.8,0.,4.8
1979-08-05 00:17:14.530 ,5,0,3.,4.8,0.,4.8,1.,4.8,0.,4.8
1979-08-05 00:17:19.330 ,5,0,3.,4.8,0.,4.8,0.,4.8,0.,4.8
1979-08-05 00:17:24.130 ,5,0,1.,4.8,1.,4.8,0.,4.8,0.,4.8
1979-08-05 00:17:28.930 ,5,0,5.,4.8,1.,4.8,1.,4.8,0.,4.8
1979-08-05 00:17:33.730 ,6,0,0.,4.8,1.,4.8,0.,4.8,0.,4.8
1979-08-05 00:17:38.530 ,6,0,5.,4.8,0.,4.8,1.,4.8,0.,4.8
1979-08-05 00:17:43.330 ,6,0,1.,4.8,1.,4.8,0.,4.8,0.,4.8
1979-08-05 00:17:48.130 ,6,0,3.,4.8,0.,4.8,0.,4.8,0.,4.8
1979-08-05 00:17:52.930 ,6,0,1.,4.8,1.,4.8,1.,4.8,0.,4.8
1979-08-05 00:17:57.730 ,6,0,1.,4.8,0.,4.8,2.,4.8,0.,4.8
1979-08-05 00:18:02.530 ,6,0,2.,4.8,2.,4.8,0.,4.8,0.,4.8
1979-08-05 00:18:07.330 ,6,0,5.,4.8,0.,4.8,1.,4.8,0.,4.8
1979-08-05 00:18:12.130 ,6,0,2.,4.8,0.,4.8,1.,4.8,0.,4.8
1979-08-05 00:18:16.930 ,6,0,3.,4.8,1.,4.8,0.,4.8,0.,4.8
1979-08-05 00:18:21.730 ,7,0,2.,4.8,1.,4.8,0.,4.8,0.,4.8
1979-08-05 00:18:26.530 ,7,0,2.,4.8,1.,4.8,0.,4.8,0.,4.8
1979-08-05 00:18:31.330 ,7,0,1.,4.8,0.,4.8,0.,4.8,0.,4.8
1979-08-05 00:18:36.130 ,7,0,0.,4.8,2.,4.8,0.,4.8,0.,4.8
1979-08-05 00:18:40.930 ,7,0,3.,4.8,0.,4.8,0.,4.8,0.,4.8
1979-08-05 00:18:45.730 ,7,0,3.,4.8,0.,4.8,0.,4.8,0.,4.8
1979-08-05 00:18:50.530 ,7,0,2.,4.8,0.,4.8,0.,4.8,0.,4.8
1979-08-05 00:18:55.330 ,7,0,2.,4.8,0.,4.8,1.,4.8,0.,4.8
1979-08-05 00:19:00.130 ,7,0,3.,4.8,2.,4.8,2.,4.8,0.,4.8
1979-08-05 00:19:04.930 ,7,0,0.,4.8,2.,4.8,0.,4.8,0.,4.8
1979-08-05 00:19:09.730 ,3,1,6.,4.8,0.,4.8,0.,4.8,0.,4.8
1979-08-05 00:19:14.530 ,3,1,2.,4.8,0.,4.8,0.,4.8,0.,4.8
1979-08-05 00:19:19.330 ,3,1,2.,4.8,0.,4.8,0.,4.8,0.,4.8
1979-08-05 00:19:24.130 ,3,1,3.,4.8,2.,4.8,0.,4.8,0.,4.8
1979-08-05 00:19:28.930 ,3,1,2.,4.8,0.,4.8,1.,4.8,0.,4.8
1979-08-05 00:19:33.730 ,0,1,2.,4.8,0.,4.8,0.,4.8,0.,4.8
1979-08-05 00:19:38.530 ,0,1,1.,4.8,3.,4.8,0.,4.8,0.,4.8
1979-08-05 00:19:43.330 ,0,1,5.,4.8,2.,4.8,2.,4.8,1.,4.8
1979-08-05 00:19:48.130 ,0,1,4.,4.8,1.,4.8,1.,4.8,0.,4.8
1979-08-05 00:19:52.930 ,0,1,4.,4.8,1.,4.8,0.,4.8,0.,4.8
1979-08-05 00:19:57.730 ,4,1,2.,4.8,0.,4.8,0.,4.8,0.,4.8
1979-08-05 00:20:02.530 ,4,1,4.,4.8,2.,4.8,1.,4.8,0.,4.8
1979-08-05 00:20:07.330 ,4,1,2.,4.8,2.,4.8,2.,4.8,0.,4.8
1979-08-05 00:20:12.130 ,4,1,4.,4.8,2.,4.8,0.,4.8,0.,4.8
1979-08-05 00:20:16.930 ,4,1,1.,4.8,0.,4.8,1.,4.8,0.,4.8
1979-08-05 00:20:21.730 ,7,1,3.,4.8,0.,4.8,1.,4.8,0.,4.8
1979-08-05 00:20:26.530 ,7,1,5.,4.8,0.,4.8,2.,4.8,0.,4.8
1979-08-05 00:20:31.330 ,7,1,5.,4.8,0.,4.8,1.,4.8,0.,4.8
1979-08-05 00:20:36.130 ,7,1,0.,4.8,0.,4.8,0.,4.8,0.,4.8
1979-08-05 00:20:40.930 ,7,1,1.,4.8,1.,4.8,1.,4.8,0.,4.8
1979-08-05 00:20:45.730 ,3,1,0.,4.8,0.,4.8,0.,4.8,0.,4.8
1979-08-05 00:20:50.530 ,3,1,3.,4.8,1.,4.8,4.,4.8,0.,4.8
1979-08-05 00:20:55.330 ,3,1,3.,4.8,0.,4.8,0.,4.8,0.,4.8
1979-08-05 00:21:00.130 ,3,1,1.,4.8,3.,4.8,3.,4.8,0.,4.8
1979-08-05 00:21:04.930 ,3,1,1.,4.8,2.,4.8,0.,4.8,0.,4.8
1979-08-05 00:21:09.730 ,0,1,4.,4.8,0.,4.8,1.,4.8,0.,4.8
1979-08-05 00:21:14.530 ,0,1,2.,4.8,0.,4.8,0.,4.8,0.,4.8
1979-08-05 00:21:19.330 ,0,1,1.,4.8,3.,4.8,1.,4.8,0.,4.8
1979-08-05 00:21:24.130 ,0,1,2.,4.8,2.,4.8,1.,4.8,0.,4.8
1979-08-05 00:21:28.930 ,0,1,4.,4.8,0.,4.8,0.,4.8,0.,4.8
1979-08-05 00:21:33.730 ,4,1,1.,4.8,2.,4.8,0.,4.8,0.,4.8
1979-08-05 00:21:38.530 ,4,1,1.,4.8,0.,4.8,1.,4.8,0.,4.8
1979-08-05 00:21:43.330 ,4,1,3.,4.8,0.,4.8,1.,4.8,0.,4.8
1979-08-05 00:21:48.130 ,4,1,2.,4.8,1.,4.8,0.,4.8,0.,4.8
1979-08-05 00:21:52.930 ,4,1,2.,4.8,0.,4.8,0.,4.8,0.,4.8
1979-08-05 00:21:57.730 ,7,1,0.,4.8,0.,4.8,1.,4.8,0.,4.8
1979-08-05 00:22:02.530 ,7,1,4.,4.8,3.,4.8,0.,4.8,0.,4.8
1979-08-05 00:22:07.330 ,7,1,1.,4.8,0.,4.8,1.,4.8,0.,4.8
1979-08-05 00:22:12.130 ,7,1,3.,4.8,0.,4.8,0.,4.8,0.,4.8
1979-08-05 00:22:16.930 ,7,1,0.,4.8,0.,4.8,1.,4.8,0.,4.8
1979-08-05 00:22:21.730 ,3,1,1.,4.8,2.,4.8,0.,4.8,0.,4.8
1979-08-05 00:22:26.530 ,3,1,1.,4.8,1.,4.8,0.,4.8,0.,4.8
1979-08-05 00:22:31.330 ,3,1,1.,4.8,1.,4.8,2.,4.8,0.,4.8
1979-08-05 00:22:36.130 ,3,1,7.,4.8,1.,4.8,0.,4.8,0.,4.8
1979-08-05 00:22:40.930 ,3,1,3.,4.8,0.,4.8,2.,4.8,0.,4.8
1979-08-05 00:22:45.730 ,0,1,0.,4.8,0.,4.8,1.,4.8,1.,4.8
1979-08-05 00:22:50.530 ,0,1,5.,4.8,0.,4.8,1.,4.8,0.,4.8
1979-08-05 00:22:55.330 ,0,1,1.,4.8,1.,4.8,2.,4.8,0.,4.8
1979-08-05 00:23:00.130 ,0,1,4.,4.8,0.,4.8,1.,4.8,0.,4.8
1979-08-05 00:23:04.930 ,0,1,3.,4.8,1.,4.8,0.,4.8,0.,4.8
1979-08-05 00:23:09.730 ,4,1,4.,4.8,1.,4.8,0.,4.8,0.,4.8
1979-08-05 00:23:14.530 ,4,1,1.,4.8,0.,4.8,2.,4.8,0.,4.8
1979-08-05 00:23:19.330 ,4,1,1.,4.8,1.,4.8,1.,4.8,0.,4.8
1979-08-05 00:23:24.130 ,4,1,6.,4.8,0.,4.8,0.,4.8,0.,4.8
1979-08-05 00:23:28.930 ,4,1,4.,4.8,0.,4.8,0.,4.8,0.,4.8
1979-08-05 00:23:33.730 ,7,1,5.,4.8,1.,4.8,0.,4.8,0.,4.8
1979-08-05 00:23:38.530 ,7,1,2.,4.8,3.,4.8,0.,4.8,1.,4.8
1979-08-05 00:23:43.330 ,7,1,3.,4.8,0.,4.8,1.,4.8,0.,4.8
1979-08-05 00:23:48.130 ,7,1,3.,4.8,0.,4.8,1.,4.8,0.,4.8
1979-08-05 00:23:52.930 ,7,1,0.,4.8,0.,4.8,1.,4.8,0.,4.8
1979-08-05 00:23:57.730 ,3,1,3.,4.8,1.,4.8,1.,4.8,0.,4.8
1979-08-05 00:24:02.530 ,3,1,1.,4.8,0.,4.8,1.,4.8,0.,4.8
1979-08-05 00:24:07.330 ,3,1,5.,4.8,0.,4.8,2.,4.8,0.,4.8
1979-08-05 00:24:12.130 ,3,1,4.,4.8,0.,4.8,0.,4.8,0.,4.8
1979-08-05 00:24:16.930 ,3,1,2.,4.8,0.,4.8,0.,4.8,0.,4.8
1979-08-05 00:24:21.730 ,0,1,6.,4.8,0.,4.8,0.,4.8,0.,4.8
1979-08-05 00:24:26.530 ,0,1,4.,4.8,0.,4.8,1.,4.8,0.,4.8
1979-08-05 00:24:31.330 ,0,1,2.,4.8,0.,4.8,0.,4.8,0.,4.8
1979-08-05 00:24:36.130 ,0,1,1.,4.8,2.,4.8,2.,4.8,0.,4.8
1979-08-05 00:24:40.930 ,0,1,4.,4.8,0.,4.8,3.,4.8,0.,4.8
1979-08-05 00:24:45.730 ,4,1,1.,4.8,2.,4.8,2.,4.8,0.,4.8
1979-08-05 00:24:50.530 ,4,1,3.,4.8,1.,4.8,0.,4.8,0.,4.8
1979-08-05 00:24:55.330 ,4,1,3.,4.8,0.,4.8,0.,4.8,0.,4.8
1979-08-05 00:25:00.130 ,4,1,6.,4.8,1.,4.8,2.,4.8,0.,4.8
1979-08-05 00:25:04.930 ,4,1,2.,4.8,1.,4.8,2.,4.8,0.,4.8
1979-08-05 00:25:09.730 ,7,1,4.,4.8,0.,4.8,1.,4.8,0.,4.8
1979-08-05 00:25:14.530 ,7,1,1.,4.8,0.,4.8,1.,4.8,0.,4.8
1979-08-05 00:25:19.330 ,7,1,2.,4.8,2.,4.8,0.,4.8,0.,4.8
1979-08-05 00:25:24.130 ,7,1,2.,4.8,1.,4.8,1.,4.8,0.,4.8
1979-08-05 00:25:28.930 ,7,1,1.,4.8,1.,4.8,0.,4.8,0.,4.8
1979-08-05 00:25:33.730 ,3,1,3.,4.8,0.,4.8,0.,4.8,0.,4.8
1979-08-05 00:25:38.530 ,3,1,3.,4.8,2.,4.8,1.,4.8,0.,4.8
1979-08-05 00:25:43.330 ,3,1,3.,4.8,1.,4.8,0.,4.8,0.,4.8
1979-08-05 00:25:48.130 ,3,1,3.,4.8,0.,4.8,3.,4.8,0.,4.8
1979-08-05 00:25:52.930 ,3,1,4.,4.8,1.,4.8,3.,4.8,0.,4.8
1979-08-05 00:25:57.730 ,0,1,4.,4.8,0.,4.8,0.,4.8,0.,4.8
1979-08-05 00:26:02.530 ,0,1,6.,4.8,3.,4.8,1.,4.8,0.,4.8
1979-08-05 00:26:07.330 ,0,1,0.,4.8,2.,4.8,2.,4.8,0.,4.8
1979-08-05 00:26:12.130 ,0,1,3.,4.8,0.,4.8,0.,4.8,0.,4.8
1979-08-05 00:26:16.930 ,0,1,1.,4.8,0.,4.8,0.,4.8,0.,4.8
1979-08-05 00:26:21.730 ,4,1,2.,4.8,0.,4.8,3.,4.8,0.,4.8
1979-08-05 00:26:26.530 ,4,1,2.,4.8,0.,4.8,0.,4.8,0.,4.8
1979-08-05 00:26:31.330 ,4,1,1.,4.8,0.,4.8,2.,4.8,0.,4.8
1979-08-05 00:26:36.130 ,4,1,3.,4.8,1.,4.8,1.,4.8,0.,4.8
1979-08-05 00:26:40.930 ,4,1,5.,4.8,1.,4.8,1.,4.8,0.,4.8
1979-08-05 00:26:45.730 ,7,1,4.,4.8,0.,4.8,0.,4.8,0.,4.8
1979-08-05 00:26:50.530 ,7,1,1.,4.8,1.,4.8,0.,4.8,0.,4.8
1979-08-05 00:26:55.330 ,7,1,1.,4.8,0.,4.8,1.,4.8,0.,4.8
1979-08-05 00:27:00.130 ,7,1,0.,4.8,2.,4.8,1.,4.8,0.,4.8
1979-08-05 00:27:04.930 ,7,1,0.,4.8,0.,4.8,0.,4.8,0.,4.8
1979-08-05 00:27:09.730 ,3,1,3.,4.8,0.,4.8,0.,4.8,0.,4.8
1979-08-05 00:27:14.530 ,3,1,3.,4.8,0.,4.8,1.,4.8,0.,4.8
1979-08-05 00:27:19.330 ,3,1,3.,4.8,1.,4.8,1.,4.8,0.,4.8
1979-08-05 00:27:24.130 ,3,1,2.,4.8,1.,4.8,0.,4.8,0.,4.8
1979-08-05 00:27:28.930 ,3,1,3.,4.8,0.,4.8,1.,4.8,0.,4.8
1979-08-05 00:27:33.730 ,0,1,2.,4.8,0.,4.8,0.,4.8,0.,4.8
1979-08-05 00:27:38.530 ,0,1,4.,4.8,0.,4.8,0.,4.8,1.,4.8
1979-08-05 00:27:43.330 ,0,1,5.,4.8,1.,4.8,0.,4.8,0.,4.8
1979-08-05 00:27:48.130 ,0,1,4.,4.8,0.,4.8,1.,4.8,0.,4.8
1979-08-05 00:27:52.930 ,0,1,1.,4.8,0.,4.8,1.,4.8,0.,4.8
1979-08-05 00:27:57.730 ,4,1,3.,4.8,2.,4.8,0.,4.8,0.,4.8
1979-08-05 00:28:02.530 ,4,1,6.,4.8,2.,4.8,0.,4.8,0.,4.8
1979-08-05 00:28:07.330 ,4,1,3.,4.8,0.,4.8,2.,4.8,0.,4.8
1979-08-05 00:28:12.130 ,4,1,2.,4.8,0.,4.8,1.,4.8,0.,4.8
1979-08-05 00:28:16.930 ,4,1,4.,4.8,0.,4.8,1.,4.8,0.,4.8
1979-08-05 00:28:21.730 ,7,1,5.,4.8,0.,4.8,0.,4.8,0.,4.8
1979-08-05 00:28:26.530 ,7,1,3.,4.8,1.,4.8,1.,4.8,0.,4.8
1979-08-05 00:28:31.330 ,7,1,3.,4.8,0.,4.8,0.,4.8,0.,4.8
1979-08-05 00:28:36.130 ,7,1,2.,4.8,1.,4.8,1.,4.8,0.,4.8
1979-08-05 00:28:40.930 ,7,1,5.,4.8,0.,4.8,1.,4.8,0.,4.8
1979-08-05 00:28:45.730 ,3,1,0.,4.8,0.,4.8,0.,4.8,0.,4.8
1979-08-05 00:28:50.530 ,3,1,0.,4.8,2.,4.8,1.,4.8,0.,4.8
1979-08-05 00:28:55.330 ,3,1,1.,4.8,1.,4.8,1.,4.8,0.,4.8
1979-08-05 00:29:00.130 ,3,1,5.,4.8,0.,4.8,0.,4.8,0.,4.8
1979-08-05 00:29:04.930 ,3,1,3.,4.8,0.,4.8,2.,4.8,0.,4.8
1979-08-05 00:29:09.730 ,0,1,2.,4.8,1.,4.8,1.,4.8,0.,4.8
1979-08-05 00:29:14.530 ,0,1,12.,4.8,1.,4.8,2.,4.8,0.,4.8
1979-08-05 00:29:19.330 ,0,1,5.,4.8,0.,4.8,4.,4.8,0.,4.8
1979-08-05 00:29:24.130 ,0,1,1.,4.8,1.,4.8,0.,4.8,1.,4.8
1979-08-05 00:29:28.930 ,0,1,2.,4.8,1.,4.8,1.,4.8,0.,4.8
1979-08-05 00:29:33.730 ,0,0,2.,4.8,0.,4.8,0.,4.8,0.,4.8
1979-08-05 00:29:38.530 ,0,0,4.,4.8,0.,4.8,0.,4.8,0.,4.8
1979-08-05 00:29:43.330 ,0,0,5.,4.8,0.,4.8,1.,4.8,0.,4.8
1979-08-05 00:29:48.130 ,0,0,4.,4.8,0.,4.8,3.,4.8,0.,4.8
1979-08-05 00:29:52.930 ,0,0,5.,4.8,0.,4.8,0.,4.8,0.,4.8
1979-08-05 00:29:57.730 ,0,0,5.,4.8,1.,4.8,3.,4.8,0.,4.8
1979-08-05 00:30:02.530 ,0,0,9.,4.8,1.,4.8,3.,4.8,0.,4.8
1979-08-05 00:30:07.330 ,0,0,3.,4.8,2.,4.8,3.,4.8,0.,4.8
1979-08-05 00:30:12.130 ,0,0,3.,4.8,0.,4.8,1.,4.8,0.,4.8
1979-08-05 00:30:16.930 ,0,0,6.,4.8,0.,4.8,1.,4.8,0.,4.8
1979-08-05 00:30:21.730 ,5,0,4.,4.8,1.,4.8,0.,4.8,0.,4.8
1979-08-05 00:30:26.530 ,5,0,7.,4.8,0.,4.8,4.,4.8,0.,4.8
1979-08-05 00:30:31.330 ,5,0,2.,4.8,0.,4.8,0.,4.8,0.,4.8
1979-08-05 00:30:36.130 ,5,0,2.,4.8,1.,4.8,1.,4.8,0.,4.8
1979-08-05 00:30:40.930 ,5,0,5.,4.8,0.,4.8,0.,4.8,0.,4.8
1979-08-05 00:30:45.730 ,5,0,3.,4.8,1.,4.8,0.,4.8,0.,4.8
1979-08-05 00:30:50.530 ,5,0,3.,4.8,0.,4.8,1.,4.8,0.,4.8
1979-08-05 00:30:55.330 ,5,0,3.,4.8,0.,4.8,2.,4.8,0.,4.8
1979-08-05 00:31:00.130 ,5,0,5.,4.8,0.,4.8,4.,4.8,0.,4.8
1979-08-05 00:31:04.930 ,5,0,3.,4.8,1.,4.8,0.,4.8,0.,4.8
1979-08-05 00:31:09.730 ,4,0,8.,4.8,1.,4.8,0.,4.8,0.,4.8
1979-08-05 00:31:14.530 ,4,0,1.,4.8,0.,4.8,1.,4.8,0.,4.8
1979-08-05 00:31:19.330 ,4,0,6.,4.8,0.,4.8,0.,4.8,0.,4.8
1979-08-05 00:31:24.130 ,4,0,5.,4.8,0.,4.8,2.,4.8,0.,4.8
1979-08-05 00:31:28.930 ,4,0,9.,4.8,1.,4.8,3.,4.8,0.,4.8
1979-08-05 00:31:33.730 ,4,0,7.,4.8,0.,4.8,2.,4.8,0.,4.8
1979-08-05 00:31:38.530 ,4,0,5.,4.8,0.,4.8,1.,4.8,0.,4.8
1979-08-05 00:31:43.330 ,4,0,3.,4.8,0.,4.8,0.,4.8,0.,4.8
1979-08-05 00:31:48.130 ,4,0,0.,4.8,0.,4.8,0.,4.8,0.,4.8
1979-08-05 00:31:52.930 ,4,0,6.,4.8,2.,4.8,1.,4.8,0.,4.8
1979-08-05 00:31:57.730 ,3,0,4.,4.8,0.,4.8,1.,4.8,0.,4.8
1979-08-05 00:32:02.530 ,3,0,3.,4.8,0.,4.8,2.,4.8,0.,4.8
1979-08-05 00:32:07.330 ,3,0,2.,4.8,2.,4.8,0.,4.8,0.,4.8
1979-08-05 00:32:12.130 ,3,0,4.,4.8,0.,4.8,0.,4.8,0.,4.8
1979-08-05 00:32:16.930 ,3,0,5.,4.8,0.,4.8,0.,4.8,0.,4.8
1979-08-05 00:32:21.730 ,3,0,4.,4.8,0.,4.8,0.,4.8,0.,4.8
1979-08-05 00:32:26.530 ,3,0,4.,4.8,0.,4.8,1.,4.8,0.,4.8
1979-08-05 00:32:31.330 ,3,0,2.,4.8,0.,4.8,0.,4.8,0.,4.8
1979-08-05 00:32:36.130 ,3,0,6.,4.8,0.,4.8,0.,4.8,0.,4.8
1979-08-05 00:32:40.930 ,3,0,8.,4.8,0.,4.8,2.,4.8,0.,4.8
1979-08-05 00:32:45.730 ,2,0,4.,4.8,0.,4.8,1.,4.8,0.,4.8
1979-08-05 00:32:50.530 ,2,0,4.,4.8,0.,4.8,0.,4.8,0.,4.8
1979-08-05 00:32:55.330 ,2,0,3.,4.8,0.,4.8,1.,4.8,0.,4.8
1979-08-05 00:33:00.130 ,2,0,6.,4.8,0.,4.8,2.,4.8,0.,4.8
1979-08-05 00:33:04.930 ,2,0,3.,4.8,0.,4.8,1.,4.8,0.,4.8
1979-08-05 00:33:09.730 ,2,0,2.,4.8,0.,4.8,0.,4.8,0.,4.8
1979-08-05 00:33:14.530 ,2,0,8.,4.8,1.,4.8,0.,4.8,0.,4.8